Other Public Products
Issued by NWS Charleston, SC

Home | Current Version | Previous Version | Text Only | Print | Product List | Glossary On
Versions: 1 2 3 4 5 6 7 8 9 10 11 12 13 14 15 16 17 18 19 20 21 22 23 24 25 26 27 28 29 30 31 32 33 34 35 36 37 38 39 40 41 42 43 44 45 46 47 48 49 50
114
FPUS82 KCHS 061127
OPUCHS

TEST...KCHS/KSAV Gateway Observations...TEST
National Weather Service Charleston SC
600 AM EST TUE DEC 06 2016

NOTE: "fair" indicates few or no clouds below 12,000 feet with no
significant weather and/or obstructions to visibility.

SCZ050-WAZ558-NCZ071-TXZ119-213-PAZ071-DCZ001-FLZ074-172-MI076-
NYZ176-178-MAZ016-IL014-TNZ027-NJZ106-GAZ044-MD014-061200-
...Gateway Observations for Charleston International...

CITY           SKY/WX    TMP DP  RH WIND       PRES   REMARKS
Chas Airport   RAIN      60  57  89 NE8       29.82F FOG
Seattle        CLOUDY    34  34 100 N6        30.02S FOG     WCI  29
Charlotte      LGT RAIN  46  43  89 NE21      29.89F FOG
Dallas DFW     CLOUDY    50  48  93 NE5       29.78R FOG
Dallas Love    CLOUDY    50  49  96 NE7       29.80R FOG
Philladelphia  CLOUDY    38  29  70 N6        30.13F WCI  33
Wash National  CLOUDY    44  32  62 E6        30.12S
Baltimore      CLOUDY    42  31  64 E10       30.10S
Miami          PTCLDY    76  74  93 S8        29.97R
Detroit        CLOUDY    35  32  88 E8        29.91F FOG     WCI  29
Newark         MOCLDY    39  28  64 CALM      30.14R
Laguardia      PTCLDY    42  29  59 NW7       30.13R
J F K          MOCLDY    38  27  64 CALM      30.15R
Boston Logan   NOT AVBL
Ft. Lauderdale CLOUDY    78  74  87 S10       29.96R
Chicago O`Hare CLEAR     28  27  96 N6        29.79F FOG     WCI  22
Chicago Midway MOCLDY    32  29  88 E3        29.80F FOG
Houston Bush   FOG       50  49  96 SW6       29.83S VSB 1/4
Houston Hobby  PTCLDY    51  49  92 W7        29.83F
Nashville      CLOUDY    53  51  93 SE10      29.56F
Atlanta        DRZL/FOG  52  52 100 E15       29.74F VSB 1/2

$$

GAZ044-118-TXZ119-213-NCZ071-DCZ001-MDZ014-506-PAZ021-071-NJZ106-
NYZ176-178-MAZ106-OHZ011-021-055-MIZ076-KYZ091-ILZ014-INZ047-
MNZ060-061200-
...Gateway Observations for Savannah International...

CITY           SKY/WX    TMP DP  RH WIND       PRES   REMARKS
Savannah Arpt  LGT RAIN  59  56  89 N5        29.81S FOG
Atlanta        DRZL/FOG  52  52 100 E15       29.74F VSB 1/2
Charlotte      LGT RAIN  46  43  89 NE21      29.89F FOG
Dallas DFW     CLOUDY    50  48  93 NE5       29.78R FOG
Houston Bush   FOG       50  49  96 SW6       29.83S VSB 1/4
Wash National  CLOUDY    44  32  62 E6        30.12S
Wash Dulles    CLOUDY    39  32  76 NW3       30.12R
Baltimore      CLOUDY    42  31  64 E10       30.10S
Philadelphia   CLOUDY    38  29  70 N6        30.13F WCI  33
Newark         MOCLDY    39  28  64 CALM      30.14R
Laguardia      PTCLDY    42  29  59 NW7       30.13R
J F K          MOCLDY    38  27  64 CALM      30.15R
Boston         NOT AVBL
Pittsburg      CLOUDY    36  28  73 E12       29.91F WCI  28
Akron          PTCLDY    34  26  72 E15G21    29.89F WCI  24
Cleveland      CLOUDY    37  27  67 E15       29.92F WCI  28
Cincinnati     RAIN      39  36  89 NE9       29.74F FOG     WCI  33
Columbus       RAIN      36  31  84 E9        29.81F WCI  29
Detroit        CLOUDY    35  32  88 E8        29.91F FOG     WCI  29
Chicago O`Hare CLEAR     28  27  96 N6        29.79F FOG     WCI  22
Minneapolis    CLOUDY    29  21  72 SW10      29.72S WCI  20
Indianapolis   CLOUDY    39  32  76 E6        29.74S WCI  35

$$




USA.gov is the U.S. government's official web portal to all federal, state and local government web resources and services.